Tracking 30261 objects as of 18-Feb-2025
HD Live streaming from Space Station
objects crossing your sky now

STARLINK-5148

Track STARLINK-5148 now!
10-day predictions
STARLINK-5148 is classified as:


NORAD ID: 53978
Int'l Code: 2022-125Q
Perigee: 546.0 km
Apogee: 547.8 km
Inclination: 53.2 °
Period: 95.4 minutes
Semi major axis: 6917 km
RCS: Unknown
Launch date: October 5, 2022
Source: United States (US)
Launch site: AIR FORCE WESTERN TEST RANGE (AFWTR)
Your satellite tracking list
Your tracking list is empty




NASA's NSSDC Master Catalog

Two Line Element Set (TLE):
1 53978U 22125Q   25048.57098325  .00002236  00000-0  15856-3 0  9993
2 53978  53.2175 147.9064 0001274  98.7430 261.3707 15.08832044131256
Source of the keplerian elements: AFSPC